| time (UTC) | temp F | wind direction | speed MPH | gust MPH | rain 1hr in | rain 24hr in | rain mn in | humidity % | barometer mb |
| 20260505085914 | 50 | 341 | 2.0 | 2.0 | 0.00 | 0.00 | 0.01 | 68 | 1002.6 |
| 20260505085412 | 50 | 15 | 1.0 | 2.0 | 0.00 | 0.00 | 0.01 | 67 | 1002.6 |
| 20260505084915 | 51 | 346 | 2.0 | 2.0 | 0.00 | 0.00 | 0.01 | 66 | 1002.6 |
| 20260505084413 | 51 | 3 | 2.0 | 3.0 | 0.00 | 0.00 | 0.01 | 65 | 1002.3 |
| 20260505083913 | 51 | 3 | 2.0 | 3.0 | 0.00 | 0.00 | 0.01 | 65 | 1002.1 |
| 20260505083413 | 51 | 261 | 2.0 | 2.0 | 0.00 | 0.00 | 0.01 | 64 | 1002.2 |
| 20260505082912 | 51 | 16 | 1.0 | 1.0 | 0.00 | 0.00 | 0.01 | 64 | 1002.2 |
| 20260505082414 | 51 | 216 | 2.0 | 2.0 | 0.00 | 0.00 | 0.01 | 64 | 1002.3 |
| 20260505081913 | 51 | 87 | 1.0 | 2.0 | 0.00 | 0.00 | 0.01 | 63 | 1002.1 |
| 20260505081414 | 51 | 351 | 2.0 | 4.0 | 0.00 | 0.00 | 0.01 | 63 | 1002.0 |
| 20260505080916 | 52 | 334 | 1.0 | 1.0 | 0.00 | 0.00 | 0.01 | 62 | 1001.9 |
| 20260505080413 | 52 | 332 | 3.0 | 4.0 | 0.00 | 0.00 | 0.01 | 61 | 1001.8 |
| 20260505075913 | 52 | 341 | 1.0 | 2.0 | 0.00 | 0.00 | 0.01 | 61 | 1001.7 |
| 20260505075412 | 52 | 317 | 2.0 | 4.0 | 0.00 | 0.00 | 0.01 | 61 | 1001.8 |
| 20260505074913 | 52 | 331 | 1.0 | 2.0 | 0.00 | 0.00 | 0.01 | 60 | 1001.8 |
| 20260505074412 | 52 | 345 | 1.0 | 2.0 | 0.00 | 0.00 | 0.01 | 60 | 1001.6 |
| 20260505073912 | 52 | 334 | 2.0 | 3.0 | 0.00 | 0.00 | 0.01 | 60 | 1001.7 |
| 20260505073414 | 52 | 312 | 0.0 | 0.0 | 0.00 | 0.00 | 0.01 | 61 | 1001.6 |
| 20260505072914 | 52 | 356 | 1.0 | 2.0 | 0.00 | 0.00 | 0.01 | 61 | 1001.5 |
| 20260505072412 | 52 | 341 | 2.0 | 5.0 | 0.00 | 0.00 | 0.01 | 61 | 1001.6 |
| 20260505071913 | 52 | 3 | 0.0 | 1.0 | 0.00 | 0.00 | 0.01 | 62 | 1001.4 |
| 20260505071412 | 52 | 5 | 2.0 | 3.0 | 0.01 | 0.00 | 0.01 | 63 | 1001.4 |
| 20260505070913 | 51 | 318 | 2.0 | 4.0 | 0.01 | 0.00 | 0.01 | 64 | 1001.5 |
| 20260505070412 | 51 | 47 | 1.0 | 1.0 | 0.01 | 0.00 | 0.01 | 70 | 1001.4 |
| 20260505065912 | 51 | 290 | 1.0 | 1.0 | 0.01 | 0.00 | 0.01 | 74 | 1001.6 |
| 20260505065413 | 51 | 322 | 0.0 | 1.0 | 0.01 | 0.00 | 0.01 | 77 | 1001.5 |
| 20260505064912 | 51 | 176 | 1.0 | 2.0 | 0.01 | 0.00 | 0.01 | 82 | 1002.0 |
| 20260505064412 | 51 | 182 | 1.0 | 2.0 | 0.01 | 0.00 | 0.01 | 83 | 1002.3 |
| 20260505063916 | 51 | 201 | 0.0 | 0.0 | 0.01 | 0.00 | 0.01 | 82 | 1001.8 |
| 20260505063413 | 51 | 129 | 0.0 | 0.0 | 0.01 | 0.00 | 0.01 | 82 | 1001.7 |
| 20260505062912 | 52 | 0 | 0.0 | 0.0 | 0.01 | 0.00 | 0.01 | 82 | 1001.8 |
| 20260505062413 | 52 | 0 | 0.0 | 0.0 | 0.01 | 0.00 | 0.01 | 82 | 1001.8 |
| 20260505061912 | 52 | 0 | 0.0 | 0.0 | 0.00 | 0.00 | 0.01 | 82 | 1001.5 |
| 20260505061413 | 52 | 166 | 0.0 | 0.0 | 0.00 | 0.00 | 0.01 | 83 | 1001.8 |
| 20260505060914 | 52 | 202 | 2.0 | 2.0 | 0.00 | 0.00 | 0.01 | 83 | 1001.5 |
| 20260505060412 | 52 | 187 | 2.0 | 2.0 | 0.00 | 0.00 | 0.00 | 83 | 1001.5 |
| 20260505055912 | 52 | 164 | 1.0 | 2.0 | 0.00 | 0.00 | 0.00 | 83 | 1001.6 |
| 20260505055412 | 52 | 185 | 1.0 | 2.0 | 0.00 | 0.00 | 0.00 | 83 | 1001.7 |
| 20260505054912 | 53 | 204 | 1.0 | 1.0 | 0.00 | 0.00 | 0.00 | 83 | 1001.7 |
| 20260505054412 | 53 | 203 | 0.0 | 1.0 | 0.00 | 0.00 | 0.00 | 83 | 1001.4 |
| 20260505053912 | 53 | 187 | 0.0 | 0.0 | 0.00 | 0.00 | 0.00 | 83 | 1001.5 |
| 20260505053413 | 53 | 188 | 0.0 | 0.0 | 0.00 | 0.00 | 0.00 | 83 | 1001.3 |
| 20260505052913 | 53 | 145 | 1.0 | 1.0 | 0.00 | 0.00 | 0.00 | 83 | 1001.3 |
| 20260505052412 | 53 | 182 | 1.0 | 1.0 | 0.00 | 0.00 | 0.00 | 83 | 1001.4 |
| 20260505051912 | 53 | 189 | 1.0 | 3.0 | 0.00 | 0.00 | 0.00 | 83 | 1001.3 |
| 20260505051414 | 53 | 187 | 2.0 | 5.0 | 0.00 | 0.00 | 0.00 | 83 | 1001.0 |
| 20260505050919 | 54 | 192 | 2.0 | 4.0 | 0.00 | 0.00 | 0.00 | 82 | 1001.0 |
| 20260505050412 | 54 | 170 | 1.0 | 2.0 | 0.00 | 0.00 | 0.00 | 82 | 1000.7 |
| 20260505041413 | 56 | 211 | 3.0 | 4.0 | 0.00 | 0.00 | 0.00 | 79 | 1000.5 |
| 20260505040912 | 57 | 191 | 2.0 | 4.0 | 0.00 | 0.00 | 0.00 | 78 | 1000.1 |
| 20260505040412 | 57 | 193 | 1.0 | 2.0 | 0.00 | 0.00 | 0.00 | 77 | 1000.0 |
| 20260505035912 | 57 | 13 | 2.0 | 3.0 | 0.00 | 0.00 | 0.03 | 77 | 1000.0 |
| 20260505035413 | 58 | 202 | 2.0 | 5.0 | 0.00 | 0.00 | 0.03 | 76 | 999.6 |
| 20260505034913 | 59 | 200 | 5.0 | 8.0 | 0.00 | 0.00 | 0.03 | 74 | 999.5 |
| 20260505034412 | 61 | 287 | 3.0 | 7.0 | 0.00 | 0.00 | 0.03 | 73 | 999.9 |
| 20260505033912 | 63 | 311 | 4.0 | 6.0 | 0.00 | 0.00 | 0.03 | 69 | 999.8 |
| 20260505033412 | 64 | 300 | 2.0 | 4.0 | 0.00 | 0.00 | 0.03 | 68 | 999.7 |
| 20260505032913 | 64 | 283 | 4.0 | 7.0 | 0.00 | 0.00 | 0.03 | 67 | 999.2 |
| 20260505032412 | 64 | 203 | 4.0 | 8.0 | 0.00 | 0.00 | 0.03 | 67 | 998.7 |
| 20260505031913 | 64 | 199 | 7.0 | 13.0 | 0.00 | 0.00 | 0.03 | 68 | 998.4 |
| 20260505031412 | 64 | 201 | 4.0 | 5.0 | 0.00 | 0.00 | 0.03 | 69 | 998.3 |
| 20260505030912 | 64 | 198 | 4.0 | 6.0 | 0.00 | 0.00 | 0.03 | 69 | 998.3 |
| 20260505030414 | 64 | 192 | 4.0 | 6.0 | 0.00 | 0.00 | 0.03 | 70 | 998.1 |
| 20260505025916 | 64 | 189 | 5.0 | 8.0 | 0.00 | 0.00 | 0.03 | 70 | 997.8 |
| 20260505025414 | 64 | 187 | 5.0 | 8.0 | 0.00 | 0.00 | 0.03 | 70 | 997.8 |
| 20260505024916 | 63 | 197 | 4.0 | 5.0 | 0.00 | 0.00 | 0.03 | 70 | 997.7 |
| 20260505024415 | 63 | 190 | 4.0 | 8.0 | 0.00 | 0.00 | 0.03 | 69 | 997.8 |
| 20260505023916 | 63 | 189 | 6.0 | 9.0 | 0.03 | 0.00 | 0.03 | 68 | 997.9 |
| 20260505023414 | 63 | 165 | 3.0 | 4.0 | 0.03 | 0.00 | 0.03 | 69 | 997.7 |
| 20260505022916 | 63 | 192 | 6.0 | 9.0 | 0.03 | 0.00 | 0.03 | 68 | 997.8 |
| 20260505022416 | 63 | 176 | 5.0 | 6.0 | 0.03 | 0.00 | 0.03 | 69 | 997.8 |
| 20260505021915 | 63 | 170 | 5.0 | 8.0 | 0.03 | 0.00 | 0.03 | 69 | 997.8 |
| 20260505021416 | 63 | 183 | 4.0 | 8.0 | 0.03 | 0.00 | 0.03 | 69 | 997.8 |
| 20260505020914 | 63 | 179 | 4.0 | 8.0 | 0.03 | 0.00 | 0.03 | 69 | 997.8 |
| 20260505020412 | 63 | 185 | 8.0 | 11.0 | 0.03 | 0.00 | 0.03 | 68 | 998.0 |
| 20260505015913 | 63 | 184 | 6.0 | 9.0 | 0.03 | 0.00 | 0.03 | 68 | 998.1 |
| 20260505015412 | 63 | 182 | 6.0 | 9.0 | 0.02 | 0.00 | 0.03 | 68 | 997.9 |
| 20260505014914 | 63 | 181 | 5.0 | 7.0 | 0.02 | 0.00 | 0.02 | 68 | 998.0 |
| 20260505014413 | 64 | 185 | 3.0 | 6.0 | 0.02 | 0.00 | 0.02 | 69 | 997.6 |
| 20260505013912 | 65 | 190 | 4.0 | 7.0 | 0.02 | 0.00 | 0.02 | 67 | 997.9 |
| 20260505013412 | 66 | 206 | 6.0 | 12.0 | 0.02 | 0.00 | 0.02 | 65 | 998.1 |
| 20260505012912 | 66 | 204 | 4.0 | 7.0 | 0.00 | 0.00 | 0.00 | 61 | 998.0 |
| 20260505012412 | 66 | 211 | 2.0 | 4.0 | 0.00 | 0.00 | 0.00 | 62 | 997.6 |
| 20260505011913 | 67 | 188 | 3.0 | 5.0 | 0.00 | 0.00 | 0.00 | 62 | 997.2 |
| 20260505011412 | 68 | 189 | 5.0 | 8.0 | 0.00 | 0.00 | 0.00 | 62 | 997.4 |
| 20260505010912 | 69 | 192 | 9.0 | 17.0 | 0.00 | 0.00 | 0.00 | 61 | 997.1 |
| 20260505010414 | 69 | 161 | 5.0 | 10.0 | 0.00 | 0.00 | 0.00 | 60 | 997.3 |
| 20260505005914 | 69 | 190 | 9.0 | 13.0 | 0.00 | 0.00 | 0.00 | 59 | 997.2 |
| 20260505005414 | 70 | 191 | 6.0 | 9.0 | 0.00 | 0.00 | 0.00 | 58 | 997.1 |
| 20260505004912 | 70 | 169 | 4.0 | 8.0 | 0.00 | 0.00 | 0.00 | 58 | 997.0 |
| 20260505004412 | 70 | 183 | 5.0 | 8.0 | 0.00 | 0.00 | 0.00 | 57 | 997.2 |
| 20260505003913 | 70 | 178 | 5.0 | 9.0 | 0.00 | 0.00 | 0.00 | 57 | 997.1 |
| 20260505003413 | 70 | 176 | 6.0 | 8.0 | 0.00 | 0.00 | 0.00 | 56 | 997.3 |
| 20260505002912 | 71 | 160 | 4.0 | 6.0 | 0.00 | 0.00 | 0.00 | 55 | 997.3 |
| 20260505002413 | 71 | 162 | 6.0 | 10.0 | 0.00 | 0.00 | 0.00 | 54 | 997.2 |
| 20260505001913 | 71 | 177 | 4.0 | 10.0 | 0.00 | 0.00 | 0.00 | 53 | 997.1 |
| 20260505001414 | 72 | 195 | 7.0 | 10.0 | 0.00 | 0.00 | 0.00 | 51 | 997.0 |
| 20260505000912 | 72 | 195 | 5.0 | 8.0 | 0.00 | 0.00 | 0.00 | 49 | 997.0 |
| 20260505000413 | 73 | 178 | 4.0 | 6.0 | 0.00 | 0.00 | 0.00 | 47 | 997.0 |
| 20260504235912 | 74 | 190 | 7.0 | 10.0 | 0.00 | 0.00 | 0.00 | 42 | 997.1 |
| 20260504235412 | 74 | 169 | 4.0 | 6.0 | 0.00 | 0.00 | 0.00 | 38 | 997.1 |
| 20260504234912 | 75 | 192 | 6.0 | 11.0 | 0.00 | 0.00 | 0.00 | 36 | 997.1 |
| 20260504234412 | 75 | 156 | 3.0 | 4.0 | 0.00 | 0.00 | 0.00 | 37 | 996.9 |
| 20260504233913 | 76 | 207 | 2.0 | 3.0 | 0.00 | 0.00 | 0.00 | 36 | 996.9 |
| 20260504233412 | 76 | 186 | 2.0 | 3.0 | 0.00 | 0.00 | 0.00 | 36 | 996.9 |
| 20260504232912 | 76 | 193 | 2.0 | 4.0 | 0.00 | 0.00 | 0.00 | 35 | 997.0 |
| 20260504232412 | 77 | 208 | 4.0 | 7.0 | 0.00 | 0.00 | 0.00 | 34 | 997.1 |
| 20260504231914 | 77 | 196 | 4.0 | 6.0 | 0.00 | 0.00 | 0.00 | 34 | 997.2 |
| 20260504231413 | 77 | 175 | 1.0 | 3.0 | 0.00 | 0.00 | 0.00 | 35 | 997.3 |
| 20260504230912 | 77 | 194 | 5.0 | 8.0 | 0.00 | 0.00 | 0.00 | 34 | 997.4 |
| 20260504230422 | 77 | 201 | 3.0 | 4.0 | 0.00 | 0.00 | 0.00 | 35 | 997.5 |
| 20260504225912 | 76 | 191 | 2.0 | 4.0 | 0.00 | 0.00 | 0.00 | 36 | 997.6 |
| 20260504225412 | 76 | 187 | 3.0 | 6.0 | 0.00 | 0.00 | 0.00 | 36 | 997.6 |
| 20260504224913 | 76 | 205 | 5.0 | 8.0 | 0.00 | 0.00 | 0.00 | 36 | 997.7 |
| 20260504224412 | 76 | 206 | 4.0 | 8.0 | 0.00 | 0.00 | 0.00 | 36 | 997.8 |
| 20260504223913 | 76 | 204 | 3.0 | 8.0 | 0.00 | 0.00 | 0.00 | 36 | 998.0 |
| 20260504223412 | 76 | 180 | 3.0 | 4.0 | 0.00 | 0.00 | 0.00 | 36 | 998.1 |
| 20260504222912 | 76 | 195 | 3.0 | 4.0 | 0.00 | 0.00 | 0.00 | 36 | 998.2 |
| 20260504222412 | 76 | 199 | 2.0 | 4.0 | 0.00 | 0.00 | 0.00 | 36 | 998.2 |
| 20260504221914 | 76 | 207 | 4.0 | 7.0 | 0.00 | 0.00 | 0.00 | 36 | 998.3 |
| 20260504221412 | 75 | 205 | 3.0 | 4.0 | 0.00 | 0.00 | 0.00 | 36 | 998.3 |
| 20260504220913 | 75 | 233 | 3.0 | 5.0 | 0.00 | 0.00 | 0.00 | 37 | 998.4 |
| 20260504220412 | 75 | 197 | 5.0 | 8.0 | 0.00 | 0.00 | 0.00 | 37 | 998.4 |
| 20260504215913 | 75 | 230 | 2.0 | 3.0 | 0.00 | 0.00 | 0.00 | 39 | 998.5 |
| 20260504215412 | 75 | 188 | 2.0 | 3.0 | 0.00 | 0.00 | 0.00 | 38 | 998.6 |
| 20260504214914 | 75 | 178 | 3.0 | 5.0 | 0.00 | 0.00 | 0.00 | 39 | 998.7 |
| 20260504214412 | 75 | 202 | 7.0 | 12.0 | 0.00 | 0.00 | 0.00 | 37 | 998.6 |
| 20260504213912 | 75 | 188 | 2.0 | 4.0 | 0.00 | 0.00 | 0.00 | 38 | 998.7 |
| 20260504213413 | 75 | 194 | 4.0 | 7.0 | 0.00 | 0.00 | 0.00 | 38 | 998.7 |
| 20260504212913 | 75 | 241 | 4.0 | 6.0 | 0.00 | 0.00 | 0.00 | 39 | 998.8 |
| 20260504212412 | 75 | 201 | 6.0 | 9.0 | 0.00 | 0.00 | 0.00 | 40 | 998.9 |
| 20260504211913 | 75 | 199 | 4.0 | 7.0 | 0.00 | 0.00 | 0.00 | 38 | 998.8 |
| 20260504211416 | 74 | 199 | 4.0 | 10.0 | 0.00 | 0.00 | 0.00 | 39 | 998.9 |
| 20260504210916 | 74 | 197 | 2.0 | 5.0 | 0.00 | 0.00 | 0.00 | 41 | 999.0 |
| 20260504210414 | 74 | 185 | 6.0 | 9.0 | 0.00 | 0.00 | 0.00 | 40 | 999.1 |
| 20260504205912 | 75 | 198 | 4.0 | 9.0 | 0.00 | 0.00 | 0.00 | 40 | 999.1 |
| 20260504205413 | 75 | 171 | 4.0 | 6.0 | 0.00 | 0.00 | 0.00 | 41 | 999.2 |
| 20260504204916 | 75 | 166 | 6.0 | 9.0 | 0.00 | 0.00 | 0.00 | 40 | 999.3 |
| 20260504204412 | 75 | 204 | 4.0 | 7.0 | 0.00 | 0.00 | 0.00 | 41 | 999.3 |
| 20260504203912 | 74 | 210 | 3.0 | 6.0 | 0.00 | 0.00 | 0.00 | 41 | 999.4 |
| 20260504203413 | 74 | 198 | 6.0 | 9.0 | 0.00 | 0.00 | 0.00 | 40 | 999.5 |
| 20260504202913 | 74 | 205 | 5.0 | 9.0 | 0.00 | 0.00 | 0.00 | 41 | 999.6 |
| 20260504202415 | 74 | 188 | 7.0 | 12.0 | 0.00 | 0.00 | 0.00 | 42 | 999.5 |
| 20260504201915 | 74 | 192 | 6.0 | 9.0 | 0.00 | 0.00 | 0.00 | 42 | 999.7 |
| 20260504201413 | 74 | 195 | 4.0 | 7.0 | 0.00 | 0.00 | 0.00 | 44 | 999.8 |
| 20260504200912 | 74 | 203 | 6.0 | 7.0 | 0.00 | 0.00 | 0.00 | 44 | 999.9 |
| 20260504200416 | 74 | 198 | 7.0 | 9.0 | 0.00 | 0.00 | 0.00 | 45 | 999.9 |
| 20260504195914 | 73 | 194 | 5.0 | 10.0 | 0.00 | 0.00 | 0.00 | 46 | 1000.0 |
| 20260504195416 | 74 | 194 | 4.0 | 10.0 | 0.00 | 0.00 | 0.00 | 46 | 1000.0 |
| 20260504194914 | 73 | 178 | 5.0 | 8.0 | 0.00 | 0.00 | 0.00 | 46 | 1000.0 |
| 20260504194417 | 73 | 198 | 7.0 | 14.0 | 0.00 | 0.00 | 0.00 | 46 | 1000.0 |
| 20260504193913 | 73 | 192 | 5.0 | 11.0 | 0.00 | 0.00 | 0.00 | 46 | 1000.0 |
| 20260504193413 | 73 | 186 | 5.0 | 7.0 | 0.00 | 0.00 | 0.00 | 46 | 1000.2 |
| 20260504192921 | 72 | 201 | 6.0 | 9.0 | 0.00 | 0.00 | 0.00 | 46 | 1000.2 |
| 20260504192412 | 72 | 195 | 4.0 | 7.0 | 0.00 | 0.00 | 0.00 | 46 | 1000.2 |
| 20260504191912 | 73 | 191 | 8.0 | 12.0 | 0.00 | 0.00 | 0.00 | 46 | 1000.2 |
| 20260504191413 | 73 | 214 | 4.0 | 7.0 | 0.00 | 0.00 | 0.00 | 45 | 1000.4 |
| 20260504190912 | 73 | 208 | 5.0 | 9.0 | 0.00 | 0.00 | 0.00 | 45 | 1000.2 |
| 20260504190415 | 73 | 188 | 3.0 | 7.0 | 0.00 | 0.00 | 0.00 | 44 | 1000.3 |
| 20260504185914 | 73 | 197 | 4.0 | 7.0 | 0.00 | 0.00 | 0.00 | 44 | 1000.2 |
| 20260504185412 | 73 | 190 | 5.0 | 8.0 | 0.00 | 0.00 | 0.00 | 43 | 1000.2 |
| 20260504184913 | 73 | 193 | 6.0 | 10.0 | 0.00 | 0.00 | 0.00 | 43 | 1000.3 |
| 20260504184413 | 73 | 201 | 4.0 | 8.0 | 0.00 | 0.00 | 0.00 | 43 | 1000.4 |
| 20260504183918 | 73 | 226 | 5.0 | 8.0 | 0.00 | 0.00 | 0.00 | 41 | 1000.4 |
| 20260504183413 | 73 | 191 | 6.0 | 9.0 | 0.00 | 0.00 | 0.00 | 41 | 1000.3 |
| 20260504182426 | 73 | 190 | 5.0 | 6.0 | 0.00 | 0.00 | 0.00 | 40 | 1000.3 |
| 20260504181915 | 73 | 194 | 3.0 | 4.0 | 0.00 | 0.00 | 0.00 | 38 | 1000.3 |
| 20260504181414 | 73 | 194 | 4.0 | 7.0 | 0.00 | 0.00 | 0.00 | 38 | 1000.3 |
| 20260504180914 | 73 | 201 | 3.0 | 6.0 | 0.00 | 0.00 | 0.00 | 39 | 1000.4 |
| 20260504180414 | 73 | 191 | 5.0 | 8.0 | 0.00 | 0.00 | 0.00 | 38 | 1000.5 |
| 20260504175915 | 72 | 190 | 3.0 | 5.0 | 0.00 | 0.00 | 0.00 | 40 | 1000.6 |
| 20260504175414 | 72 | 207 | 6.0 | 7.0 | 0.00 | 0.00 | 0.00 | 39 | 1000.7 |
| 20260504174912 | 72 | 201 | 5.0 | 8.0 | 0.00 | 0.00 | 0.00 | 39 | 1000.7 |
| 20260504174413 | 72 | 197 | 4.0 | 6.0 | 0.00 | 0.00 | 0.00 | 37 | 1000.7 |
| 20260504173912 | 72 | 196 | 6.0 | 10.0 | 0.00 | 0.00 | 0.00 | 36 | 1000.7 |
| 20260504173415 | 71 | 144 | 3.0 | 6.0 | 0.00 | 0.00 | 0.00 | 37 | 1000.7 |
| 20260504172916 | 71 | 194 | 6.0 | 11.0 | 0.00 | 0.00 | 0.00 | 36 | 1000.8 |
| 20260504172415 | 71 | 188 | 5.0 | 9.0 | 0.00 | 0.00 | 0.00 | 36 | 1000.8 |
| 20260504171914 | 71 | 199 | 4.0 | 6.0 | 0.00 | 0.00 | 0.00 | 36 | 1000.9 |
| 20260504171415 | 71 | 150 | 4.0 | 6.0 | 0.00 | 0.00 | 0.00 | 37 | 1001.0 |
| 20260504170912 | 71 | 185 | 5.0 | 7.0 | 0.00 | 0.00 | 0.00 | 37 | 1001.0 |
| 20260504170413 | 71 | 168 | 4.0 | 7.0 | 0.00 | 0.00 | 0.00 | 37 | 1001.1 |
| 20260504160415 | 68 | 199 | 6.0 | 8.0 | 0.00 | 0.00 | 0.00 | 43 | 1001.9 |
| 20260504150915 | 63 | 167 | 2.0 | 5.0 | 0.00 | 0.00 | 0.00 | 56 | 1002.3 |
| 20260504150412 | 63 | 185 | 6.0 | 7.0 | 0.00 | 0.00 | 0.00 | 54 | 1002.5 |
| 20260504140914 | 60 | 183 | 4.0 | 6.0 | 0.00 | 0.00 | 0.00 | 61 | 1002.9 |
| 20260504140417 | 60 | 167 | 2.0 | 3.0 | 0.00 | 0.00 | 0.00 | 63 | 1002.9 |
| 20260504130418 | 57 | 196 | 4.0 | 9.0 | 0.00 | 0.00 | 0.00 | 68 | 1003.3 |
| 20260504110420 | 54 | 171 | 4.0 | 7.0 | 0.00 | 0.00 | 0.00 | 74 | 1002.9 |
| 20260504100412 | 54 | 206 | 2.0 | 4.0 | 0.00 | 0.00 | 0.00 | 73 | 1002.9 |